Theta_e
312 311 312 313 311 310 309 309 309 310 311 311 313 313 313 314 314 318 317 316 315 314 313 314 317 315 311 312 311 312 312 313 323 339 340 340 342 341 339 339 340 340 340 339
311 313 312 310 309 309 310 310 311 311 311 311 312 313 315 315 316 314 313 312 311 310 309 310 311 314 316 317 312 311 312 313 314 337 339 339 340 340 340 340 340 340 341 339
311 311 310 309 309 310 311 311 311 310 310 312 314 315 313 317 315 312 311 309 309 307 306 307 308 310 314 317 317 311 311 312 313 316 338 338 338 339 339 338 338 339 339 339
310 310 309 309 310 310 311 311 311 311 313 314 314 316 313 316 314 311 310 308 307 305 302 303 304 306 309 312 317 315 310 311 312 314 336 338 338 339 337 336 337 337 337 337
313 310 309 311 311 310 310 311 312 314 316 316 315 316 315 313 312 310 307 305 304 302 301 300 300 301 305 307 312 317 312 310 311 313 327 337 338 338 336 335 336 336 338 338
309 308 309 311 310 311 312 313 315 316 316 318 315 313 315 312 310 308 305 303 301 301 300 299 296 297 300 302 305 312 317 310 310 311 323 337 337 339 336 336 337 337 339 338
308 308 310 310 311 313 314 316 316 316 320 317 314 314 313 310 308 306 303 301 300 299 298 298 295 294 296 298 301 303 306 311 314 320 324 336 337 337 337 337 337 339 339 339
307 311 310 311 311 314 315 315 316 317 314 315 314 317 313 308 307 306 303 302 299 298 297 296 294 293 293 295 297 300 302 305 309 309 312 321 330 335 337 338 340 341 339 337
306 308 307 306 309 314 318 318 314 317 315 317 315 318 314 308 306 305 303 301 299 297 296 295 293 291 291 293 294 296 298 302 304 305 307 310 315 319 318 329 336 337 336 335
307 308 306 307 310 313 314 313 317 318 319 317 314 316 312 307 306 304 302 300 298 296 295 294 292 290 290 290 294 295 298 300 302 304 305 305 307 309 312 314 316 317 320 324
307 309 309 307 311 311 312 316 314 313 315 317 319 316 307 305 303 303 300 299 298 295 294 293 291 290 290 290 291 293 293 294 298 299 302 303 303 306 307 306 308 310 313 314
309 311 311 309 309 310 311 311 311 317 316 320 318 313 305 304 303 301 299 299 297 295 293 292 291 290 290 289 290 291 292 294 296 297 297 298 299 302 302 302 303 306 308 309
309 311 313 311 311 310 311 310 310 311 313 317 321 314 305 303 301 300 299 297 296 295 293 292 291 290 290 289 289 289 291 290 291 293 294 295 297 300 300 300 301 303 303 304
306 311 311 312 313 311 310 310 309 310 316 319 313 311 308 305 302 301 299 296 296 295 293 292 291 290 289 289 289 289 290 290 290 291 291 292 293 295 296 297 299 301 301 302
309 310 309 309 308 310 311 310 309 311 312 312 310 308 305 304 302 302 302 298 296 294 293 292 291 290 289 288 288 290 290 290 291 290 291 291 292 293 294 296 297 298 299 300
309 311 309 309 309 312 311 310 308 307 308 308 308 308 303 303 300 299 297 297 296 294 293 292 291 290 289 288 288 289 290 290 291 291 291 290 290 292 293 292 294 295 296 296
311 310 310 312 311 313 313 309 308 306 305 306 307 304 303 302 300 298 296 295 294 293 291 291 290 289 288 288 288 289 288 289 289 290 290 290 290 290 291 291 291 292 293 295
310 310 310 310 314 315 308 307 306 306 303 304 303 302 302 302 299 297 295 294 293 292 291 290 289 288 287 286 287 287 287 288 288 288 289 290 290 290 290 290 290 290 292 293
309 309 311 311 311 310 306 305 306 307 305 301 301 300 301 301 301 299 295 293 292 291 290 289 289 288 286 285 286 286 286 286 286 286 287 288 288 289 289 290 289 290 290 291
309 309 311 311 310 313 309 304 303 304 309 300 300 300 300 301 304 299 294 293 291 290 288 288 288 287 286 284 285 285 285 285 285 285 286 286 286 287 287 287 287 289 289 289
310 309 310 310 309 310 304 304 304 307 306 299 299 298 298 298 295 294 293 292 290 288 287 286 287 286 285 284 284 285 285 285 284 284 285 285 285 286 286 286 286 286 287 288
310 310 310 309 308 310 303 303 306 302 300 298 297 296 296 295 294 293 292 291 288 286 285 285 285 285 284 284 284 284 284 284 284 285 285 285 285 285 285 285 284 284 284 284
310 309 311 309 309 303 302 301 299 298 298 296 296 295 295 294 293 292 291 290 287 285 284 284 284 284 284 283 284 284 284 284 284 285 285 285 285 284 284 284 283 283 281 282
306 305 307 306 303 302 300 299 297 296 296 295 295 295 294 294 292 292 290 289 287 285 284 283 283 283 283 283 283 283 283 284 284 285 284 284 285 284 284 284 283 282 281 280
306 305 305 304 302 300 299 297 296 294 293 293 292 292 292 292 291 290 289 287 286 285 284 283 282 282 282 282 282 282 282 282 283 284 283 283 284 284 284 284 283 282 281 280
305 306 305 307 303 302 299 297 296 294 294 293 292 291 290 289 289 288 287 286 285 284 283 283 282 281 281 281 280 280 281 281 281 282 282 282 283 283 283 284 284 283 282 281
Wind_Speed
7 8 12 10 7 8 10 13 15 14 14 12 19 25 21 19 10 20 20 20 22 24 28 40 43 36 32 31 31 36 33 32 28 34 34 33 33 33 34 33 35 32 29 33
8 13 8 4 5 7 11 15 14 13 3 16 20 26 23 9 21 19 22 22 24 25 25 29 36 38 37 38 34 34 37 37 37 33 36 36 33 34 34 34 32 34 32 33
10 7 1 6 8 10 12 13 13 14 15 17 18 19 14 14 21 22 23 23 22 23 26 24 28 36 41 42 39 35 38 39 38 38 37 35 34 30 32 30 29 31 31 30
7 6 2 7 10 7 11 6 11 13 14 12 15 16 16 14 18 20 23 25 25 24 23 22 26 34 37 44 34 35 35 38 39 43 35 39 35 33 34 34 33 31 33 29
4 5 5 6 5 3 7 10 15 17 15 17 17 9 2 16 22 25 23 22 23 23 22 23 24 34 36 37 39 27 33 36 38 43 40 38 39 36 32 33 35 33 33 32
11 1 5 5 5 8 10 13 18 17 6 8 12 8 6 12 20 22 22 21 22 22 22 21 30 34 35 35 35 33 30 32 37 44 40 44 41 34 32 32 31 34 30 33
8 9 5 5 7 6 6 11 8 5 7 10 11 9 8 16 19 19 21 22 22 21 21 21 22 27 34 36 34 32 28 22 17 19 30 48 38 41 33 33 31 31 27 26
8 7 11 7 3 6 7 6 6 7 10 14 19 1 6 15 17 19 20 21 21 23 21 23 23 30 37 36 34 31 24 20 19 24 22 7 14 32 29 31 28 28 29 29
5 5 5 4 4 4 3 4 6 6 13 12 12 11 6 22 21 22 22 23 21 23 22 22 27 31 33 32 31 28 25 22 25 28 28 25 34 17 16 21 17 21 23 25
3 4 6 4 7 11 8 7 4 3 5 9 4 6 9 20 21 21 18 20 20 22 23 20 22 29 29 35 28 28 26 22 22 28 28 35 26 22 18 21 27 21 18 12
3 4 8 5 7 2 4 2 3 7 9 8 8 4 6 12 14 17 18 15 17 19 19 18 21 25 26 28 30 26 27 26 29 31 29 27 25 17 20 24 22 19 15 5
4 3 5 2 6 1 3 4 4 3 8 8 11 4 7 10 11 14 17 15 15 15 15 14 20 24 24 24 26 24 24 29 30 31 32 19 28 18 23 27 23 18 11 4
6 4 4 7 8 11 1 3 9 9 11 14 6 4 6 10 12 14 14 16 16 15 16 15 19 22 25 26 28 30 33 35 38 32 29 32 25 14 31 31 25 12 7 7
2 4 4 3 1 2 4 4 8 9 7 4 4 3 8 8 10 10 13 14 14 14 15 15 15 21 26 29 31 30 31 32 25 29 36 34 29 30 30 23 15 8 11 13
5 5 5 5 4 5 0 2 5 4 10 5 3 4 9 6 7 7 5 11 14 16 18 17 17 19 28 31 32 34 32 31 30 27 29 28 21 21 20 21 16 19 21 18
5 4 4 4 3 12 4 2 2 2 3 5 2 7 9 4 7 12 14 13 14 15 17 19 20 25 27 29 30 32 32 33 32 32 31 26 25 25 23 18 19 21 18 18
6 3 3 3 7 10 5 3 3 5 6 6 5 6 9 6 7 11 14 15 17 17 17 18 19 26 28 30 31 30 31 30 32 31 30 33 31 34 29 30 32 31 26 23
5 4 1 1 11 5 4 5 4 8 4 5 4 4 6 3 2 10 13 15 16 16 17 18 22 25 28 30 30 29 30 31 31 31 30 32 31 29 32 34 31 29 26 28
4 3 3 3 3 6 6 6 6 7 5 2 3 5 8 4 9 7 13 13 13 14 17 19 21 22 24 28 29 29 29 29 28 26 29 29 26 28 30 30 29 25 23 24
7 3 4 5 8 4 7 3 3 4 5 1 3 6 8 10 3 7 12 12 14 16 17 18 19 20 23 26 25 24 27 30 31 31 28 28 30 29 28 27 25 24 25 24
7 4 7 6 5 6 5 5 7 4 4 2 4 5 6 6 4 5 8 10 13 14 16 18 17 18 20 22 23 22 23 25 24 24 25 25 25 22 22 22 23 26 25 22
7 7 5 5 5 5 4 7 4 4 5 3 4 5 4 4 4 5 7 9 13 15 17 18 18 19 19 21 22 23 24 25 25 23 23 25 27 25 24 24 23 24 25 24
4 3 1 4 3 5 8 9 6 4 4 3 3 4 3 3 5 6 7 8 12 13 14 16 18 19 20 22 22 22 25 26 25 24 24 26 23 23 24 20 23 23 26 25
3 2 3 5 4 6 6 8 6 6 5 3 4 5 5 5 6 7 7 9 10 10 12 14 17 19 21 23 23 23 24 24 23 21 21 23 21 24 24 22 22 22 25 26
2 8 6 4 6 6 6 5 7 6 5 3 5 6 7 6 6 7 7 9 10 11 12 13 16 17 19 21 22 23 24 24 23 20 22 22 20 21 20 20 17 20 17 24
5 4 6 2 10 1 10 6 7 4 3 3 1 2 6 8 6 7 8 9 10 11 12 14 15 15 16 18 20 23 23 22 23 20 21 20 20 20 20 19 18 18 18 19
Wind_Direction
179 264 248 354 344 314 295 285 290 292 312 309 303 301 309 312 305 29 9 3 349 342 334 328 324 311 292 286 269 264 261 254 250 203 209 216 211 199 198 204 204 206 209 209
233 242 55 334 289 282 281 284 285 303 263 314 305 302 303 318 51 26 11 0 346 336 334 331 322 314 308 296 272 259 254 255 253 217 211 214 214 202 197 200 200 201 202 208
265 3 66 271 278 273 272 283 301 307 310 291 282 291 303 71 47 15 8 356 344 342 335 332 327 322 319 314 274 260 249 252 250 250 209 211 216 212 202 196 200 200 200 198
279 67 256 280 279 283 285 339 303 295 301 294 314 293 282 8 3 8 2 355 340 348 340 335 334 327 325 320 290 259 252 250 248 248 217 202 209 208 202 194 192 203 201 198
111 217 247 255 266 284 289 316 292 292 282 285 278 247 117 16 355 355 2 348 343 340 342 342 342 334 327 335 334 309 251 248 248 253 234 206 212 213 202 196 188 198 196 194
266 295 253 248 276 263 295 288 272 260 290 250 227 232 37 15 352 354 355 351 348 342 344 345 347 343 342 341 346 347 339 253 245 249 243 209 209 210 202 194 189 185 192 193
180 196 168 244 287 209 244 289 294 243 212 255 11 312 42 12 14 8 355 354 352 351 348 350 355 349 343 346 349 353 351 340 330 281 278 209 204 210 206 194 192 177 184 191
215 183 194 156 218 319 305 310 312 309 307 320 308 130 83 28 20 14 3 0 352 356 354 357 359 358 347 342 342 348 354 354 23 42 40 255 177 221 213 204 188 176 182 192
222 222 138 198 246 244 195 248 346 284 267 263 263 83 172 10 9 7 1 356 355 355 357 357 360 1 342 332 346 350 351 7 28 37 43 26 65 54 76 110 139 155 169 178
132 251 201 122 230 223 252 349 270 222 288 310 274 83 349 351 354 358 357 352 354 355 355 355 357 352 342 344 345 350 354 18 27 43 41 39 43 50 52 72 84 75 98 112
220 252 153 219 220 358 209 97 299 305 270 274 295 88 357 353 354 352 349 353 351 352 353 351 347 346 341 352 348 357 4 14 29 37 43 41 35 45 59 48 55 86 59 56
175 258 239 192 156 193 89 28 352 303 289 297 297 95 29 8 356 358 352 354 354 354 348 342 342 347 351 355 350 359 10 25 32 33 41 37 43 25 63 48 42 38 39 355
183 208 215 171 173 206 81 1 333 305 272 269 282 110 45 22 0 359 0 358 355 353 351 348 348 354 354 358 0 4 12 17 24 23 33 42 43 1 39 43 41 9 360 356
331 226 246 302 4 94 273 350 351 310 280 311 56 82 12 19 354 351 3 3 358 356 353 352 355 356 360 360 360 6 15 21 24 29 28 27 24 23 26 30 28 356 12 17
247 233 206 243 255 117 59 325 55 336 341 5 91 47 354 21 351 328 19 5 1 1 359 358 358 358 359 2 4 5 7 12 27 27 32 27 26 32 34 28 13 18 18 10
205 207 238 234 217 122 151 182 71 89 3 24 310 84 3 331 354 12 9 9 7 4 3 360 358 360 2 1 360 9 8 11 16 17 26 20 19 26 32 23 24 29 17 15
195 224 208 185 135 143 184 166 124 105 30 336 34 0 342 338 13 18 9 9 8 6 4 2 2 359 360 1 2 4 7 12 17 20 9 12 10 17 16 19 20 17 13 8
178 166 237 278 138 213 115 157 125 120 112 30 55 347 329 348 52 32 23 10 6 4 5 0 2 3 1 358 1 5 11 18 17 14 11 13 11 11 10 18 17 9 7 10
228 168 210 234 243 116 161 175 200 208 136 88 13 345 333 312 187 53 20 9 7 8 7 360 3 5 2 2 0 5 9 13 16 13 12 10 5 11 14 15 14 5 10 10
169 210 246 210 261 222 109 86 150 200 199 108 19 349 347 337 276 37 360 4 5 9 7 2 5 9 7 3 3 4 6 7 7 3 3 8 12 14 14 9 5 3 13 12
176 188 222 236 254 102 80 101 145 215 83 59 19 10 13 38 22 345 350 1 13 10 6 4 8 14 8 3 3 8 7 8 360 2 7 10 13 16 11 7 9 11 10 7
179 187 199 237 255 208 22 164 266 99 93 44 45 38 45 36 10 2 13 8 19 8 6 7 7 10 10 8 8 6 5 356 359 2 5 8 13 16 15 13 13 14 12 8
202 356 86 11 53 108 71 81 94 74 111 64 45 36 22 24 11 19 20 23 41 13 12 8 8 8 11 10 13 10 0 358 357 360 3 6 13 12 14 17 17 18 14 11
149 166 120 168 142 109 103 107 93 86 96 69 37 30 25 35 19 23 24 23 49 29 29 16 12 11 8 7 10 10 3 2 2 2 0 3 11 8 11 13 20 20 16 12
101 156 141 91 138 135 142 121 120 111 115 82 49 40 27 17 38 19 34 26 21 26 24 30 20 13 8 7 9 7 6 6 6 5 5 7 6 6 7 14 23 24 26 26
192 131 186 160 156 176 142 147 135 147 129 109 93 55 35 20 29 20 37 26 22 25 18 22 20 16 13 14 12 8 6 7 6 8 8 7 6 5 6 6 9 22 28 26